Location: Goettingen
(51.5300°N, 9.9433°E)
Time: 22:49:41
(UTC+02:00)

ISS - Pass Details

Date: 24 April 2025
Orbit: 417 x 420 km, 51.6° (Epoch: 29 April)

Event Time Altitude Azimuth Distance (km) Brightness Sun altitude
Exits shadow 04:31:14 16° 182° (S) 1,196 -1.9 -13.2°
Maximum altitude 04:32:50 21° 145° (SE) 985 -2.0 -13.1°
Drops below altitude 10° 04:35:27 10° 93° (E) 1,496 -0.3 -12.8°
Sets 04:37:52 0° 78° (ENE) 2,363 1.3 -12.5°
